SBI347 UNKL-UNNT

Flight info

Callsign SBI347
Flight time N/A
Altitude 36000
Route APRUS2F APRUS B926 NATIR NATIR1N
Aircraft A320/M-SDE3FGHIRWY/LB1

Departure

Time 2026-05-01 14:39
Airport Krasnoyarsk International Airport (UNKL)

Arrival

Time N/A
Airport Novosibirsk Tolmachevo Airport (UNNT)
Time Latitude Longitude Altitude Speed Heading
2026-05-01 14:08 56.18087 92.47452 957 ft 0 kts 25°
2026-05-01 14:32 56.18089 92.47454 953 ft 2 kts 25°
2026-05-01 14:32 56.18115 92.47475 956 ft 6 kts 25°
2026-05-01 14:32 56.18116 92.47569 955 ft 12 kts 109°
2026-05-01 14:33 56.18073 92.47735 955 ft 17 kts 129°
2026-05-01 14:33 56.18019 92.47917 953 ft 13 kts 118°
2026-05-01 14:33 56.17986 92.47966 955 ft 3 kts 185°
2026-05-01 14:33 56.17952 92.47942 956 ft 8 kts 206°
2026-05-01 14:34 56.17886 92.47891 955 ft 13 kts 201°
2026-05-01 14:34 56.17829 92.48003 955 ft 16 kts 111°
2026-05-01 14:34 56.17778 92.48212 956 ft 21 kts 114°
2026-05-01 14:34 56.17721 92.48479 957 ft 25 kts 104°
2026-05-01 14:35 56.17648 92.48787 956 ft 28 kts 114°
2026-05-01 14:35 56.17572 92.49118 954 ft 29 kts 112°
2026-05-01 14:35 56.17490 92.49459 955 ft 30 kts 114°
2026-05-01 14:35 56.17407 92.49809 956 ft 31 kts 113°
2026-05-01 14:36 56.17323 92.50169 955 ft 32 kts 112°
2026-05-01 14:36 56.17236 92.50538 955 ft 32 kts 113°
2026-05-01 14:36 56.17146 92.50906 957 ft 32 kts 113°
2026-05-01 14:36 56.17057 92.51281 957 ft 33 kts 113°
2026-05-01 14:37 56.16973 92.51633 956 ft 28 kts 113°
2026-05-01 14:37 56.16914 92.51879 957 ft 20 kts 112°
2026-05-01 14:37 56.16843 92.52013 956 ft 15 kts 171°
2026-05-01 14:37 56.16735 92.52037 954 ft 17 kts 173°
2026-05-01 14:38 56.16667 92.51981 955 ft 10 kts 263°
2026-05-01 14:38 56.16677 92.51927 955 ft 2 kts 294°
2026-05-01 14:38 56.16680 92.51914 952 ft 0 kts 294°
2026-05-01 14:38 56.16683 92.51901 954 ft 7 kts 294°
2026-05-01 14:39 56.16745 92.51641 954 ft 63 kts 292°
2026-05-01 14:39 56.17137 92.49979 953 ft 151 kts 293°
2026-05-01 14:39 56.17441 92.48713 1006 ft 178 kts 293°
2026-05-01 14:39 56.17939 92.46716 1750 ft 175 kts 295°
2026-05-01 14:40 56.18590 92.44042 2775 ft 173 kts 293°
2026-05-01 14:40 56.18905 92.42725 3231 ft 173 kts 292°
2026-05-01 14:40 56.19370 92.40736 3872 ft 173 kts 292°
2026-05-01 14:40 56.19840 92.38710 4375 ft 183 kts 292°
2026-05-01 14:41 56.20360 92.36478 4667 ft 206 kts 292°
2026-05-01 14:41 56.20952 92.33952 4969 ft 231 kts 292°
2026-05-01 14:41 56.21587 92.31145 5369 ft 255 kts 287°
2026-05-01 14:41 56.21656 92.27895 6019 ft 267 kts 259°
2026-05-01 14:42 56.21102 92.24695 6942 ft 270 kts 249°
2026-05-01 14:42 56.20340 92.21601 7844 ft 272 kts 246°
2026-05-01 14:42 56.19528 92.18502 8686 ft 277 kts 246°
2026-05-01 14:42 56.18723 92.15349 9000 ft 278 kts 248°
2026-05-01 14:43 56.17953 92.12170 9095 ft 278 kts 249°
2026-05-01 14:43 56.17216 92.08965 9109 ft 277 kts 250°
2026-05-01 14:43 56.16512 92.05788 9103 ft 277 kts 250°
2026-05-01 14:43 56.15809 92.02563 9213 ft 281 kts 250°
2026-05-01 14:44 56.15102 91.99282 10125 ft 281 kts 251°
2026-05-01 14:44 56.13594 91.92278 10898 ft 322 kts 251°
2026-05-01 14:44 56.12770 91.88473 11534 ft 330 kts 251°
2026-05-01 14:45 56.11933 91.84623 12295 ft 334 kts 251°
2026-05-01 14:45 56.10221 91.76768 13842 ft 342 kts 252°
2026-05-01 14:45 56.09350 91.72784 14512 ft 345 kts 252°
2026-05-01 14:46 56.08468 91.68768 15199 ft 347 kts 252°
2026-05-01 14:46 56.06695 91.60721 16570 ft 352 kts 252°
2026-05-01 14:46 56.05793 91.56624 17237 ft 355 kts 252°
2026-05-01 14:47 56.04886 91.52498 17889 ft 358 kts 252°
2026-05-01 14:47 56.03968 91.48330 18519 ft 362 kts 252°
2026-05-01 14:47 56.03039 91.44127 19047 ft 365 kts 252°
2026-05-01 14:48 56.01144 91.35605 20162 ft 372 kts 252°
2026-05-01 14:48 56.00183 91.31298 20732 ft 375 kts 252°
2026-05-01 14:48 55.98318 91.22506 21849 ft 379 kts 259°
2026-05-01 14:49 55.97214 91.13262 22947 ft 384 kts 262°
2026-05-01 14:49 55.96118 91.03872 23937 ft 389 kts 262°
2026-05-01 14:50 55.95185 90.95990 24661 ft 393 kts 262°
2026-05-01 14:50 55.93847 90.84776 25643 ft 397 kts 262°
2026-05-01 14:51 55.93266 90.79945 26053 ft 399 kts 262°
2026-05-01 14:51 55.92092 90.70222 26850 ft 403 kts 262°
2026-05-01 14:52 55.90958 90.60860 27586 ft 407 kts 262°
2026-05-01 14:52 55.90356 90.55927 27945 ft 409 kts 262°
2026-05-01 14:52 55.89135 90.45985 28677 ft 412 kts 262°
2026-05-01 14:53 55.88519 90.40978 29020 ft 414 kts 262°
2026-05-01 14:53 55.87898 90.35959 29350 ft 416 kts 262°
2026-05-01 14:53 55.87269 90.30907 29668 ft 418 kts 262°
2026-05-01 14:53 55.86638 90.25847 29985 ft 420 kts 261°
2026-05-01 14:54 55.85999 90.20763 30266 ft 422 kts 261°
2026-05-01 14:54 55.85355 90.15669 30524 ft 423 kts 262°
2026-05-01 14:54 55.84706 90.10523 30773 ft 425 kts 262°
2026-05-01 14:54 55.84061 90.05396 31014 ft 426 kts 262°
2026-05-01 14:55 55.83407 90.00245 31257 ft 427 kts 262°
2026-05-01 14:55 55.82750 89.95099 31559 ft 425 kts 262°
2026-05-01 14:55 55.82093 89.89983 31908 ft 424 kts 262°
2026-05-01 14:55 55.81440 89.84900 32255 ft 422 kts 262°
2026-05-01 14:56 55.80782 89.79810 32592 ft 421 kts 262°
2026-05-01 14:56 55.80126 89.74749 32928 ft 419 kts 262°
2026-05-01 14:56 55.79471 89.69714 33261 ft 418 kts 262°
2026-05-01 14:56 55.78818 89.64690 33594 ft 417 kts 262°
2026-05-01 14:57 55.78166 89.59687 33903 ft 416 kts 262°
2026-05-01 14:57 55.76848 89.49648 34427 ft 417 kts 262°
2026-05-01 14:57 55.76187 89.44644 34681 ft 417 kts 262°
2026-05-01 14:58 55.75520 89.39626 34941 ft 416 kts 262°
2026-05-01 14:58 55.74857 89.34630 35193 ft 416 kts 262°
2026-05-01 14:58 55.74194 89.29633 35438 ft 416 kts 262°
2026-05-01 14:58 55.73526 89.24621 35679 ft 416 kts 262°
2026-05-01 14:59 55.72859 89.19627 35902 ft 416 kts 262°
2026-05-01 14:59 55.72189 89.14622 36057 ft 416 kts 262°
2026-05-01 14:59 55.70842 89.04720 36092 ft 415 kts 261°
2026-05-01 15:00 55.68803 88.89822 36091 ft 414 kts 261°
2026-05-01 15:01 55.67453 88.79907 36084 ft 414 kts 261°
2026-05-01 15:01 55.66087 88.69975 36094 ft 414 kts 261°
2026-05-01 15:02 55.64710 88.60069 36101 ft 414 kts 261°
2026-05-01 15:02 55.63329 88.50140 36102 ft 415 kts 261°
2026-05-01 15:03 55.61950 88.40297 36088 ft 415 kts 261°
2026-05-01 15:03 55.60546 88.30395 36092 ft 414 kts 260°
2026-05-01 15:04 55.59142 88.20507 36096 ft 414 kts 260°
2026-05-01 15:04 55.57732 88.10657 36096 ft 413 kts 260°
2026-05-01 15:05 55.56317 88.00812 36095 ft 413 kts 260°
2026-05-01 15:05 55.54889 87.90968 36096 ft 413 kts 260°
2026-05-01 15:06 55.53451 87.81130 36092 ft 413 kts 259°
2026-05-01 15:06 55.52009 87.71322 36080 ft 413 kts 259°
2026-05-01 15:07 55.50561 87.61514 36079 ft 413 kts 259°
2026-05-01 15:07 55.49104 87.51709 36055 ft 414 kts 259°
2026-05-01 15:08 55.47631 87.41884 36051 ft 415 kts 258°
2026-05-01 15:08 55.46150 87.32104 36047 ft 416 kts 258°
2026-05-01 15:09 55.44654 87.22260 36035 ft 416 kts 258°
2026-05-01 15:09 55.43151 87.12404 36040 ft 417 kts 258°
2026-05-01 15:10 55.41638 87.02563 36043 ft 417 kts 258°
2026-05-01 15:10 55.39336 86.87778 36039 ft 417 kts 258°
2026-05-01 15:11 55.37019 86.73003 36043 ft 418 kts 257°
2026-05-01 15:12 55.35469 86.63145 36031 ft 418 kts 257°
2026-05-01 15:12 55.33127 86.48363 36033 ft 419 kts 257°
2026-05-01 15:14 55.29174 86.23788 36045 ft 420 kts 257°
2026-05-01 15:14 55.26983 86.08944 36044 ft 418 kts 265°
2026-05-01 15:15 55.26009 85.88638 36042 ft 418 kts 266°
2026-05-01 15:16 55.24998 85.68299 36042 ft 419 kts 266°
2026-05-01 15:18 55.23701 85.42934 36036 ft 419 kts 265°
2026-05-01 15:19 55.22612 85.22594 36029 ft 419 kts 265°
2026-05-01 15:19 55.22058 85.12420 35778 ft 419 kts 265°
2026-05-01 15:19 55.21776 85.07337 35501 ft 419 kts 265°
2026-05-01 15:20 55.21210 84.97203 33905 ft 423 kts 264°
2026-05-01 15:20 55.20919 84.91987 32988 ft 424 kts 264°
2026-05-01 15:20 55.20631 84.86851 32338 ft 420 kts 264°
2026-05-01 15:21 55.20344 84.81816 31807 ft 414 kts 264°
2026-05-01 15:21 55.20052 84.76817 31241 ft 409 kts 264°
2026-05-01 15:21 55.19749 84.71897 30690 ft 405 kts 261°
2026-05-01 15:21 55.19135 84.67116 30129 ft 402 kts 252°
2026-05-01 15:22 55.17341 84.58010 28938 ft 393 kts 251°
2026-05-01 15:22 55.16455 84.53514 28392 ft 389 kts 251°
2026-05-01 15:22 55.15580 84.49061 27854 ft 385 kts 251°
2026-05-01 15:23 55.14716 84.44648 27315 ft 381 kts 250°
2026-05-01 15:23 55.13856 84.40283 26797 ft 378 kts 250°
2026-05-01 15:23 55.13000 84.35954 26277 ft 375 kts 250°
2026-05-01 15:23 55.12151 84.31676 25785 ft 372 kts 250°
2026-05-01 15:24 55.11299 84.27411 25289 ft 370 kts 250°
2026-05-01 15:24 55.10453 84.23186 24804 ft 368 kts 250°
2026-05-01 15:24 55.09893 84.20399 24498 ft 366 kts 250°
2026-05-01 15:24 55.09052 84.16211 24034 ft 364 kts 249°
2026-05-01 15:25 55.08217 84.12054 23571 ft 362 kts 249°
2026-05-01 15:25 55.07388 84.07921 23064 ft 359 kts 250°
2026-05-01 15:25 55.06568 84.03842 22620 ft 354 kts 250°
2026-05-01 15:25 55.05754 83.99802 22176 ft 351 kts 250°
2026-05-01 15:26 55.04948 83.95812 21733 ft 347 kts 250°
2026-05-01 15:26 55.04145 83.91869 21296 ft 344 kts 250°
2026-05-01 15:26 55.03346 83.87961 20840 ft 341 kts 250°
2026-05-01 15:26 55.02555 83.84087 20404 ft 339 kts 250°
2026-05-01 15:27 55.01764 83.80215 19941 ft 337 kts 250°
2026-05-01 15:27 55.00976 83.76385 19490 ft 335 kts 250°
2026-05-01 15:27 55.00196 83.72611 19039 ft 334 kts 250°
2026-05-01 15:28 54.98614 83.65029 18107 ft 332 kts 250°
2026-05-01 15:28 54.97826 83.61265 17640 ft 330 kts 250°
2026-05-01 15:28 54.97041 83.57526 17187 ft 328 kts 250°
2026-05-01 15:29 54.95485 83.50126 16310 ft 323 kts 249°
2026-05-01 15:29 54.94714 83.46466 15883 ft 322 kts 250°
2026-05-01 15:29 54.93182 83.39184 15061 ft 318 kts 249°
2026-05-01 15:30 54.91667 83.31988 14214 ft 316 kts 249°
2026-05-01 15:31 54.88647 83.17780 12465 ft 309 kts 249°
2026-05-01 15:31 54.87204 83.10787 11594 ft 307 kts 254°
2026-05-01 15:32 54.87050 83.03423 10715 ft 310 kts 277°
2026-05-01 15:32 54.87849 82.96171 10184 ft 295 kts 277°
2026-05-01 15:33 54.87640 82.86217 9723 ft 262 kts 258°
2026-05-01 15:34 54.86900 82.77546 9127 ft 229 kts 258°